SHT16C EGLL-EGPE

Flight info

Callsign SHT16C
Flight time N/A
Altitude 38000
Route ULTIB T420 TNT UN57 POL UN601 RIBEL DCT SHAPP DCT INREV DCT TLA DCT FOYLE N560 NESDI DCT GUSSI
Aircraft A319/M-SDE3FGHIRWY/LB1

Departure

Time 2026-05-04 10:58
Airport London Heathrow Airport (EGLL)

Arrival

Time N/A
Airport Inverness Airport (EGPE)
Time Latitude Longitude Altitude Speed Heading
2026-05-04 10:23 51.47316 -0.48591 86 ft 0 kts 269°
2026-05-04 10:45 51.47316 -0.48578 89 ft 4 kts 269°
2026-05-04 10:45 51.47316 -0.48534 86 ft 4 kts 269°
2026-05-04 10:46 51.47319 -0.48494 86 ft 4 kts 238°
2026-05-04 10:46 51.47336 -0.48474 91 ft 2 kts 180°
2026-05-04 10:46 51.47354 -0.48474 90 ft 1 kts 179°
2026-05-04 10:49 51.47250 -0.48473 86 ft 13 kts 180°
2026-05-04 10:49 51.47150 -0.48473 86 ft 16 kts 180°
2026-05-04 10:50 51.47029 -0.48471 86 ft 19 kts 179°
2026-05-04 10:51 51.46654 -0.47727 86 ft 26 kts 90°
2026-05-04 10:52 51.46656 -0.47422 86 ft 30 kts 89°
2026-05-04 10:52 51.46658 -0.47186 88 ft 15 kts 89°
2026-05-04 10:52 51.46659 -0.47017 86 ft 13 kts 89°
2026-05-04 10:54 51.46664 -0.45154 87 ft 29 kts 89°
2026-05-04 10:54 51.46665 -0.44889 87 ft 18 kts 90°
2026-05-04 10:56 51.46491 -0.44122 86 ft 0 kts 270°
2026-05-04 10:57 51.46491 -0.44127 86 ft 8 kts 270°
2026-05-04 10:58 51.46491 -0.44653 89 ft 84 kts 270°
2026-05-04 10:58 51.46487 -0.45933 88 ft 144 kts 270°
2026-05-04 10:58 51.46491 -0.47722 466 ft 164 kts 272°
2026-05-04 10:58 51.46487 -0.49585 1094 ft 173 kts 271°
2026-05-04 10:59 51.46581 -0.51585 1547 ft 190 kts 285°
2026-05-04 10:59 51.47189 -0.53571 1957 ft 211 kts 306°
2026-05-04 10:59 51.48053 -0.55706 2369 ft 246 kts 302°
2026-05-04 10:59 51.48929 -0.58180 3129 ft 257 kts 299°
2026-05-04 11:00 51.49769 -0.60747 4031 ft 266 kts 296°
2026-05-04 11:01 51.60939 -0.68734 8482 ft 287 kts 355°
2026-05-04 11:02 51.62950 -0.68953 9474 ft 292 kts 354°
2026-05-04 11:02 51.64994 -0.69177 10269 ft 304 kts 354°
2026-05-04 11:05 51.99056 -0.78125 20244 ft 383 kts 349°
2026-05-04 11:06 52.01695 -0.78854 20890 ft 386 kts 349°
2026-05-04 11:06 52.04356 -0.79585 21545 ft 390 kts 349°
2026-05-04 11:06 52.07042 -0.80322 22187 ft 393 kts 348°
2026-05-04 11:06 52.09741 -0.81066 22818 ft 396 kts 348°
2026-05-04 11:08 52.28673 -0.89141 26486 ft 412 kts 326°
2026-05-04 11:10 52.46183 -1.06620 29831 ft 433 kts 328°
2026-05-04 11:12 52.64500 -1.25087 32692 ft 445 kts 329°
2026-05-04 11:12 52.67130 -1.27755 33215 ft 444 kts 329°
2026-05-04 11:12 52.69756 -1.30421 33736 ft 443 kts 329°
2026-05-04 11:12 52.72369 -1.33074 34219 ft 441 kts 329°
2026-05-04 11:13 52.74984 -1.35729 34676 ft 441 kts 329°
2026-05-04 11:13 52.77595 -1.38384 35074 ft 441 kts 330°
2026-05-04 11:13 52.80203 -1.41042 35484 ft 440 kts 329°
2026-05-04 11:13 52.82811 -1.43705 35856 ft 440 kts 329°
2026-05-04 11:14 52.85415 -1.46372 36216 ft 440 kts 329°
2026-05-04 11:14 52.88012 -1.49037 36553 ft 440 kts 329°
2026-05-04 11:14 52.90583 -1.51683 36875 ft 441 kts 329°
2026-05-04 11:16 53.09567 -1.69571 38305 ft 458 kts 340°
2026-05-04 11:16 53.12568 -1.71414 38582 ft 459 kts 340°
2026-05-04 11:16 53.15559 -1.73262 38828 ft 459 kts 339°
2026-05-04 11:17 53.18554 -1.75120 38992 ft 460 kts 339°
2026-05-04 11:17 53.21513 -1.76961 39067 ft 460 kts 339°
2026-05-04 11:19 53.45359 -1.91914 39078 ft 458 kts 339°
2026-05-04 11:19 53.51328 -1.95678 39081 ft 458 kts 339°
2026-05-04 11:20 53.57290 -1.99452 39082 ft 458 kts 339°
2026-05-04 11:20 53.63266 -2.03242 39084 ft 459 kts 339°
2026-05-04 11:22 53.87002 -2.18898 39094 ft 458 kts 338°
2026-05-04 11:23 53.92906 -2.22985 39091 ft 458 kts 338°
2026-05-04 11:25 54.13543 -2.37191 39085 ft 458 kts 338°
2026-05-04 11:25 54.19437 -2.41286 39084 ft 457 kts 338°
2026-05-04 11:27 54.42979 -2.57761 39082 ft 455 kts 337°
2026-05-04 11:28 54.44464 -2.58779 39092 ft 454 kts 338°
2026-05-04 11:29 54.50688 -2.63148 39090 ft 454 kts 337°
2026-05-04 11:29 54.56508 -2.67317 39085 ft 453 kts 337°
2026-05-04 11:33 54.96041 -2.95653 39082 ft 449 kts 337°
2026-05-04 11:33 55.01799 -2.99832 39085 ft 448 kts 336°
2026-05-04 11:34 55.07551 -3.04031 39077 ft 448 kts 336°
2026-05-04 11:34 55.13259 -3.08207 39064 ft 447 kts 336°
2026-05-04 11:35 55.19008 -3.12412 39060 ft 447 kts 336°
2026-05-04 11:35 55.24748 -3.16612 39059 ft 447 kts 335°
2026-05-04 11:36 55.30510 -3.20850 39055 ft 447 kts 335°
2026-05-04 11:36 55.36194 -3.25062 39045 ft 447 kts 335°
2026-05-04 11:37 55.41930 -3.29332 39047 ft 448 kts 335°
2026-05-04 11:37 55.47670 -3.33626 39038 ft 448 kts 334°
2026-05-04 11:38 55.52783 -3.39733 39054 ft 444 kts 317°
2026-05-04 11:38 55.57379 -3.46978 39057 ft 442 kts 317°
2026-05-04 11:39 55.61948 -3.54175 39052 ft 442 kts 317°